GW7357 Weather Reports


time (UTC)temp
C
wind
direction
speed
KPH
gust
KPH
rain 1hr
cm
rain 24hr
cm
rain mn
cm
humidity
%
barometer
mb
20260505180833 24 153 19.3 19.3 0.00 0.00 0.00 48 1010.9
20260505180330 24 50 4.8 9.7 0.00 0.00 0.00 48 1011.1
20260505175826 24 132 9.7 9.7 0.00 0.00 0.00 47 1011.2
20260505175323 23 42 3.2 6.4 0.00 0.00 0.00 47 1011.2
20260505174819 23 69 6.4 11.3 0.00 0.00 0.00 48 1011.3
20260505174317 23 114 4.8 14.5 0.00 0.00 0.00 49 1011.2
20260505173812 25 114 8.0 16.1 0.00 0.00 0.00 46 1011.2
20260505173309 25 20 1.6 6.4 0.00 0.00 0.00 43 1011.2
20260505172806 25 109 4.8 6.4 0.00 0.00 0.00 43 1011.4
20260505172306 25 168 1.6 6.4 0.00 0.00 0.00 43 1011.3
20260505171758 25 299 4.8 6.4 0.00 0.00 0.00 43 1011.3
20260505171255 25 63 6.4 17.7 0.00 0.00 0.00 43 1011.4
20260505170752 26 67 1.6 6.4 0.00 0.00 0.00 43 1011.4
20260505170249 25 48 3.2 6.4 0.00 0.00 0.00 42 1011.4
20260505165750 25 86 9.7 17.7 0.00 0.00 0.00 41 1011.2
20260505165246 25 101 6.4 9.7 0.00 0.00 0.00 41 1011.5
20260505164741 25 339 6.4 8.0 0.00 0.00 0.00 42 1011.6
20260505164239 25 63 3.2 6.4 0.00 0.00 0.00 42 1011.8
20260505163737 25 323 3.2 8.0 0.00 0.00 0.00 43 1011.7
20260505163235 25 23 4.8 9.7 0.00 0.00 0.00 43 1011.8
20260505162732 25 32 3.2 4.8 0.00 0.00 0.00 43 1011.8
20260505162229 25 78 3.2 6.4 0.00 0.00 0.00 44 1011.9
20260505161726 25 2 3.2 8.0 0.00 0.00 0.00 44 1011.9
20260505161224 25 52 6.4 8.0 0.00 0.00 0.00 45 1012.2
20260505160721 25 338 0.0 4.8 0.00 0.00 0.00 43 1012.2
20260505160219 24 47 0.0 9.7 0.00 0.00 0.00 43 1012.2
20260505153158 23 59 6.4 9.7 0.00 0.00 0.00 46 1012.5
20260505152654 23 67 9.7 12.9 0.00 0.00 0.00 46 1012.4
20260505152150 23 36 8.0 9.7 0.00 0.00 0.00 46 1012.5
20260505151646 23 58 8.0 11.3 0.00 0.00 0.00 47 1012.5
20260505151143 22 95 6.4 9.7 0.00 0.00 0.00 47 1012.7
20260505150639 22 101 8.0 14.5 0.00 0.00 0.00 47 1012.6
20260505150136 22 62 4.8 8.0 0.00 0.00 0.00 48 1012.7
20260505140605 21 41 8.0 11.3 0.00 0.00 0.00 50 1013.1
20260505125018 21 22 6.4 8.0 0.00 0.00 0.00 52 1012.4
20260505124515 20 98 6.4 11.3 0.00 0.00 0.00 52 1012.6
20260505124011 20 336 6.4 9.7 0.00 0.00 0.00 52 1012.3
20260505123508 20 60 3.2 9.7 0.00 0.00 0.00 53 1012.7
20260505123004 20 52 6.4 9.7 0.00 0.00 0.00 53 1012.6
20260505122501 20 28 4.8 11.3 0.00 0.00 0.00 53 1012.5
20260505121958 20 20 4.8 6.4 0.00 0.00 0.00 54 1012.4
20260505121455 20 94 3.2 9.7 0.00 0.00 0.00 54 1012.5
20260505120951 20 2 3.2 6.4 0.00 0.00 0.00 54 1012.5
20260505120447 20 40 6.4 6.4 0.00 0.00 0.00 54 1012.4
20260505115946 20 28 1.6 6.4 0.00 0.00 0.00 55 1012.3
20260505115443 19 87 4.8 6.4 0.00 0.00 0.00 55 1012.5
20260505114941 19 43 4.8 9.7 0.00 0.00 0.00 55 1012.3
20260505114437 19 82 6.4 11.3 0.00 0.00 0.00 55 1012.4
20260505113934 18 64 4.8 8.0 0.00 0.00 0.00 56 1012.5
20260505113430 18 75 3.2 11.3 0.00 0.00 0.00 57 1012.5
20260505112926 18 75 4.8 8.0 0.00 0.00 0.00 58 1012.7
20260505112424 18 26 3.2 8.0 0.00 0.00 0.00 59 1012.5
20260505111920 18 29 3.2 6.4 0.00 0.00 0.00 59 1012.4
20260505111415 17 55 4.8 8.0 0.00 0.00 0.00 59 1012.7
20260505110911 17 102 3.2 9.7 0.00 0.00 0.00 59 1012.6
20260505110408 17 7 3.2 9.7 0.00 0.00 0.00 59 1012.8
20260505101839 16 96 3.2 9.7 0.00 0.00 0.00 64 1012.4
20260505101334 16 109 3.2 6.4 0.00 0.00 0.00 65 1012.7
20260505100830 16 122 1.6 11.3 0.00 0.00 0.00 65 1012.3
20260505100326 16 53 1.6 6.4 0.00 0.00 0.00 66 1012.2
20260505095822 16 346 3.2 8.0 0.00 0.00 0.00 65 1012.0
20260505095320 16 16 6.4 8.0 0.00 0.00 0.00 65 1012.0
20260505094816 16 97 3.2 8.0 0.00 0.00 0.00 66 1011.7
20260505094313 16 49 4.8 6.4 0.00 0.00 0.00 66 1011.6
20260505093808 16 36 8.0 8.0 0.00 0.00 0.00 65 1011.6
20260505093306 16 25 3.2 4.8 0.00 0.00 0.00 65 1011.8
20260505092802 16 52 4.8 8.0 0.00 0.00 0.00 65 1011.6
20260505092301 16 118 3.2 8.0 0.00 0.00 0.00 65 1011.7
20260505091758 16 95 3.2 6.4 0.00 0.00 0.00 65 1011.8
20260505091256 16 116 4.8 9.7 0.00 0.00 0.00 65 1011.8
20260505090754 16 37 4.8 8.0 0.00 0.00 0.00 65 1011.6
20260505090252 16 61 4.8 9.7 0.00 0.00 0.00 64 1011.7
20260505085749 16 98 4.8 12.9 0.00 0.00 0.00 64 1011.7
20260505085247 16 44 9.7 12.9 0.00 0.00 0.00 65 1011.7
20260505084744 16 100 6.4 11.3 0.00 0.00 0.00 65 1011.6
20260505084244 16 29 4.8 9.7 0.00 0.00 0.00 65 1011.7
20260505083739 15 78 6.4 8.0 0.00 0.00 0.00 66 1011.8
20260505083236 15 64 4.8 8.0 0.00 0.00 0.00 66 1011.6
20260505082732 15 93 3.2 12.9 0.00 0.00 0.00 67 1011.5
20260505082230 15 70 4.8 6.4 0.00 0.00 0.00 67 1011.6
20260505081725 15 107 12.9 12.9 0.00 0.00 0.00 67 1011.6
20260505081223 15 54 6.4 8.0 0.00 0.00 0.00 67 1011.7
20260505080720 15 107 1.6 9.7 0.00 0.00 0.00 67 1011.7
20260505080215 15 357 4.8 8.0 0.00 0.00 0.00 67 1011.6
20260505075711 15 174 1.6 8.0 0.00 0.00 0.00 67 1011.6
20260505075209 15 113 3.2 6.4 0.00 0.00 0.00 67 1011.7
20260505074706 15 39 4.8 9.7 0.00 0.00 0.00 67 1011.7
20260505074203 15 62 3.2 9.7 0.00 0.00 0.00 67 1011.6
20260505073700 15 126 4.8 8.0 0.00 0.00 0.00 68 1011.5
20260505073158 15 50 4.8 8.0 0.00 0.00 0.00 69 1011.6
20260505072654 15 67 3.2 9.7 0.00 0.00 0.00 70 1011.7
20260505072151 15 67 3.2 8.0 0.00 0.00 0.00 70 1011.7
20260505071646 15 45 4.8 8.0 0.00 0.00 0.00 69 1011.6
20260505071144 15 37 4.8 9.7 0.00 0.00 0.00 68 1011.7
20260505070641 15 11 6.4 9.7 0.00 0.00 0.00 68 1011.6
20260505070137 15 87 9.7 9.7 0.00 0.00 0.00 67 1011.6
20260505065633 15 67 8.0 8.0 0.00 0.00 0.00 66 1011.4
20260505065130 15 87 4.8 9.7 0.00 0.00 0.00 66 1011.5
20260505064627 15 117 6.4 8.0 0.00 0.00 0.00 66 1011.6
20260505064125 15 32 0.0 6.4 0.00 0.00 0.00 64 1011.4
20260505063622 15 8 4.8 8.0 0.00 0.00 0.00 63 1011.5
20260505063118 15 80 4.8 9.7 0.00 0.00 0.00 62 1011.8
20260505062615 16 53 6.4 9.7 0.00 0.00 0.00 62 1011.8
20260505062112 16 47 6.4 8.0 0.00 0.00 0.00 62 1011.9
20260505061609 16 38 3.2 9.7 0.00 0.00 0.00 61 1011.8
20260505061108 16 43 4.8 9.7 0.00 0.00 0.00 60 1011.8
20260505060605 16 54 6.4 8.0 0.00 0.00 0.00 60 1011.8
20260505055556 16 31 4.8 9.7 0.00 0.00 0.00 60 1011.8
20260505055053 16 46 6.4 8.0 0.00 0.00 0.00 60 1011.8
20260505054550 16 54 4.8 8.0 0.00 0.00 0.00 59 1011.8
20260505054049 16 0 4.8 8.0 0.00 0.00 0.00 59 1011.9
20260505053545 16 97 6.4 12.9 0.00 0.00 0.00 58 1012.0
20260505053042 16 80 6.4 9.7 0.00 0.00 0.00 58 1011.9
20260505052539 16 42 6.4 11.3 0.00 0.00 0.00 57 1012.0
20260505052037 16 46 6.4 9.7 0.00 0.00 0.00 57 1012.0
20260505051533 17 58 6.4 17.7 0.00 0.00 0.00 56 1012.1
20260505051032 17 36 6.4 14.5 0.00 0.00 0.00 56 1012.2
20260505050529 17 106 9.7 11.3 0.00 0.00 0.00 55 1012.2
20260505041457 17 52 6.4 11.3 0.00 0.00 0.00 53 1012.3
20260505040954 17 83 6.4 14.5 0.00 0.00 0.00 53 1012.4
20260505040452 17 70 11.3 12.9 0.00 0.00 0.00 53 1012.3
20260505035948 17 76 8.0 9.7 0.00 0.00 0.00 53 1012.5
20260505035444 17 95 14.5 16.1 0.00 0.00 0.00 52 1012.4
20260505034942 17 55 9.7 14.5 0.00 0.00 0.00 52 1012.5
20260505034438 17 86 9.7 14.5 0.00 0.00 0.00 51 1012.4
20260505033935 17 61 11.3 11.3 0.00 0.00 0.00 51 1012.6
20260505033432 17 25 11.3 14.5 0.00 0.00 0.00 50 1012.3
20260505032930 17 42 8.0 14.5 0.00 0.00 0.00 50 1012.4
20260505032427 17 58 6.4 11.3 0.00 0.00 0.00 50 1012.3
20260505031923 17 40 6.4 20.9 0.00 0.00 0.00 49 1012.2
20260505031420 17 32 8.0 9.7 0.00 0.00 0.00 48 1012.4
20260505030917 17 87 6.4 11.3 0.00 0.00 0.00 48 1012.5
20260505030413 17 71 6.4 11.3 0.00 0.00 0.00 47 1012.5
20260505025909 17 61 4.8 9.7 0.00 0.00 0.00 47 1012.5
20260505025406 18 73 6.4 11.3 0.00 0.00 0.00 47 1012.7
20260505024905 18 53 8.0 9.7 0.00 0.00 0.00 47 1012.5
20260505024402 18 39 9.7 9.7 0.00 0.00 0.00 47 1012.5
20260505023859 18 33 6.4 12.9 0.00 0.00 0.00 47 1012.6
20260505023356 18 56 8.0 11.3 0.00 0.00 0.00 46 1012.7
20260505022853 18 36 6.4 11.3 0.00 0.00 0.00 46 1012.7
20260505022350 18 289 3.2 9.7 0.00 0.00 0.00 46 1012.7
20260505021848 18 97 3.2 9.7 0.00 0.00 0.00 45 1012.8
20260505021344 18 58 8.0 9.7 0.00 0.00 0.00 46 1012.8
20260505020840 18 45 4.8 8.0 0.00 0.00 0.00 46 1012.8
20260505020335 18 82 8.0 14.5 0.00 0.00 0.00 46 1012.6
20260505015833 18 56 4.8 11.3 0.00 0.00 0.00 46 1012.6
20260505015330 18 55 6.4 9.7 0.00 0.00 0.00 46 1012.6
20260505014827 18 77 6.4 14.5 0.00 0.00 0.00 45 1012.7
20260505014324 18 94 8.0 11.3 0.00 0.00 0.00 45 1012.5
20260505013820 18 28 6.4 9.7 0.00 0.00 0.00 45 1012.7
20260505013318 18 47 6.4 9.7 0.00 0.00 0.00 45 1012.5
20260505012816 18 67 3.2 9.7 0.00 0.00 0.00 46 1012.6
20260505012314 18 86 6.4 11.3 0.00 0.00 0.00 46 1012.3
20260505011809 18 68 9.7 12.9 0.00 0.00 0.00 46 1012.2
20260505011307 18 50 8.0 11.3 0.00 0.00 0.00 47 1012.2
20260505010802 18 47 4.8 9.7 0.00 0.00 0.00 47 1012.2
20260505010258 18 83 8.0 9.7 0.00 0.00 0.00 47 1012.1
20260505005754 18 82 9.7 11.3 0.00 0.00 0.00 48 1012.1
20260505005252 18 40 4.8 11.3 0.00 0.00 0.00 49 1012.0
20260505004749 18 135 8.0 9.7 0.00 0.00 0.00 50 1011.9
20260505004245 18 69 3.2 9.7 0.00 0.00 0.00 51 1011.9
20260505003742 18 24 1.6 8.0 0.00 0.00 0.00 51 1011.8
20260505003240 18 42 6.4 8.0 0.00 0.00 0.00 51 1011.8
20260505002736 18 39 4.8 6.4 0.00 0.00 0.00 51 1011.6
20260505002234 18 21 6.4 8.0 0.00 0.00 0.00 52 1011.6
20260505001731 18 25 0.0 8.0 0.00 0.00 0.00 52 1011.6
20260505001229 18 24 4.8 8.0 0.00 0.00 0.00 52 1011.3
20260505000725 18 50 6.4 11.3 0.00 0.00 0.00 53 1011.3
20260505000223 18 120 4.8 6.4 0.00 0.00 0.00 52 1011.2
20260504234528 18 65 3.2 4.8 0.00 0.00 0.00 53 1011.0
20260504234025 18 65 3.2 4.8 0.00 0.00 0.00 53 1011.0
20260504233520 18 82 1.6 3.2 0.00 0.00 0.00 53 1010.9
20260504233018 18 356 0.0 6.4 0.00 0.00 0.00 52 1011.1
20260504232514 18 348 3.2 4.8 0.00 0.00 0.00 53 1010.8
20260504232012 18 117 1.6 4.8 0.00 0.00 0.00 53 1010.8
20260504231508 18 148 9.7 9.7 0.00 0.00 0.00 52 1010.9
20260504231004 18 83 3.2 6.4 0.00 0.00 0.00 51 1010.6
20260504230501 18 109 4.8 6.4 0.00 0.00 0.00 50 1010.6
20260504230000 18 138 0.0 9.7 0.00 0.00 0.00 49 1010.3
20260504225456 18 141 3.2 9.7 0.00 0.00 0.00 49 1010.5
20260504224953 19 59 6.4 8.0 0.00 0.00 0.00 49 1010.6
20260504224450 19 2 6.4 8.0 0.00 0.00 0.00 49 1010.7
20260504223947 19 69 6.4 12.9 0.00 0.00 0.00 48 1010.7
20260504223443 18 25 6.4 8.0 0.00 0.00 0.00 48 1010.4
20260504222938 18 47 6.4 9.7 0.00 0.00 0.00 48 1010.7
20260504222437 19 76 6.4 9.7 0.00 0.00 0.00 48 1010.7
20260504221934 19 61 6.4 6.4 0.00 0.00 0.00 47 1010.8
20260504221431 19 81 0.0 6.4 0.00 0.00 0.00 47 1010.7
20260504220928 19 91 9.7 9.7 0.00 0.00 0.00 47 1010.9
20260504220425 18 343 3.2 8.0 0.00 0.00 0.00 48 1011.0
20260504215922 18 100 6.4 6.4 0.00 0.00 0.00 48 1011.1
20260504215419 18 128 9.7 12.9 0.00 0.00 0.00 47 1011.0
20260504214915 19 41 3.2 8.0 0.00 0.00 0.00 47 1011.0
20260504214412 19 132 4.8 16.1 0.00 0.00 0.00 47 1011.0
20260504213908 19 118 4.8 12.9 0.00 0.00 0.00 47 1011.2
20260504213404 20 98 6.4 11.3 0.00 0.00 0.00 46 1010.9
20260504212902 20 268 3.2 20.9 0.00 0.00 0.00 45 1011.0
20260504212357 20 103 6.4 9.7 0.00 0.00 0.00 44 1010.9
20260504211855 20 28 4.8 9.7 0.00 0.00 0.00 43 1011.1
20260504211351 20 56 6.4 8.0 0.00 0.00 0.00 42 1010.9
20260504210849 20 85 3.2 11.3 0.00 0.00 0.00 42 1011.0
20260504210346 21 165 3.2 6.4 0.00 0.00 0.00 41 1011.0
20260504205843 21 26 4.8 9.7 0.00 0.00 0.00 36 1011.0
20260504205341 21 41 8.0 9.7 0.00 0.00 0.00 34 1010.8
20260504204838 21 76 3.2 12.9 0.00 0.00 0.00 33 1011.0
20260504204337 21 9 4.8 9.7 0.00 0.00 0.00 33 1010.7
20260504203836 21 10 3.2 11.3 0.00 0.00 0.00 33 1010.9
20260504203332 21 49 8.0 14.5 0.00 0.00 0.00 33 1010.8
20260504202828 21 110 4.8 12.9 0.00 0.00 0.00 32 1010.9
20260504202325 21 10 3.2 16.1 0.00 0.00 0.00 32 1011.0
20260504201822 21 80 6.4 11.3 0.00 0.00 0.00 32 1010.8
20260504201319 21 98 6.4 16.1 0.00 0.00 0.00 32 1010.9
20260504200817 21 26 4.8 9.7 0.00 0.00 0.00 32 1011.1
20260504200313 21 64 8.0 11.3 0.00 0.00 0.00 32 1011.2
20260504195809 21 18 4.8 11.3 0.00 0.00 0.00 31 1011.2
20260504195305 21 144 4.8 14.5 0.00 0.00 0.00 32 1011.2
20260504194802 21 111 8.0 12.9 0.00 0.00 0.00 31 1011.1
20260504194259 21 81 1.6 9.7 0.00 0.00 0.00 31 1011.3
20260504193755 21 121 6.4 16.1 0.00 0.00 0.00 31 1011.4
20260504193252 21 14 3.2 6.4 0.00 0.00 0.00 31 1011.3
20260504192751 21 208 4.8 14.5 0.00 0.00 0.00 32 1011.2
20260504192248 21 73 6.4 19.3 0.00 0.00 0.00 31 1011.5
20260504191747 21 43 4.8 8.0 0.00 0.00 0.00 31 1011.5
20260504191243 21 114 4.8 9.7 0.00 0.00 0.00 32 1011.7
20260504190739 21 78 8.0 14.5 0.00 0.00 0.00 32 1011.6
20260504190235 21 101 11.3 12.9 0.00 0.00 0.00 32 1011.8
20260504185732 21 64 9.7 24.1 0.00 0.00 0.00 31 1011.6
20260504185229 21 113 11.3 16.1 0.00 0.00 0.00 32 1011.9
20260504184725 21 12 6.4 9.7 0.00 0.00 0.00 32 1012.0
20260504184221 21 61 9.7 9.7 0.00 0.00 0.00 31 1012.0
20260504183717 21 81 6.4 9.7 0.00 0.00 0.00 31 1012.2
20260504183214 21 8 6.4 14.5 0.00 0.00 0.00 31 1012.1
20260504182712 21 291 3.2 16.1 0.00 0.00 0.00 32 1012.0
20260504182209 21 46 4.8 8.0 0.00 0.00 0.00 33 1012.0
20260504181707 21 83 4.8 11.3 0.00 0.00 0.00 32 1012.2
20260504181204 21 110 4.8 9.7 0.00 0.00 0.00 31 1012.2